[[{"header":{"parameterUnit":"m.s-1","parameterCategory":1,"la1":30.2991,"la2":30.254,"lo1":-89.0895,"lo2":-89.0444,"dy":0.0017,"dx":0.0017,"nx":28,"ny":28,"refTime":"2024-04-03T09:00:00:Z","depth":0,"parameterNumber":2,"parameterNumberName":"U-component_of_WINDS"},"data":[0,0,0,0,0,0,0,0,0,0,0,0,0,0,0,0,0,0,0,0,0,0,0,0,0,0,0,0,0,0,0,0,0,0,0,0,0,0,0,0,0,0,0,0,0,0,0,0,0,0,0,0,0,0,0,0,0,0,4.9172,4.9175,0,4.9401,4.9404,4.9407,4.9388,4.9385,4.9381,4.9378,4.9618,4.9627,4.9636,0,0,0,0,0,0,0,0,0,0,0,0,0,4.8727,4.8735,4.9172,4.9175,4.9178,4.9401,4.9404,4.9407,4.9389,4.9385,4.9381,4.9377,4.9614,4.9626,4.9637,0,0,0,0,0,0,0,0,0,0,0,0,0,4.8934,4.8738,4.9172,4.9196,4.92,4.94,4.9404,4.9408,4.939,4.9385,4.9379,4.9375,4.9611,4.9625,4.9639,4.9832,0,0,4.9683,4.9689,0,0,0,0,0,0,0,0,4.8923,4.8951,4.9189,4.9194,4.92,4.9361,4.9335,4.955,4.9391,4.9318,4.9378,4.9372,4.9537,4.9557,4.9611,4.9843,4.9853,4.9684,4.9693,4.9699,4.9703,0,0,0,0,0,0,0,4.8908,4.8941,4.9263,4.9193,4.9199,4.9197,4.9221,4.9376,4.9454,4.9324,4.9323,4.935,4.9539,4.9597,4.9617,4.9857,4.9684,4.9697,4.9705,4.9711,5.0264,5.027,0,0,0,0,0,0,4.8888,4.8929,4.9256,4.927,4.9045,4.921,4.9236,4.9314,4.9452,4.9468,4.9354,4.9348,4.9575,4.96,4.9625,4.9864,4.9699,4.9712,4.9721,5.0258,5.0265,5.0272,0,0,0,0,0,0,4.8878,4.8917,4.9246,4.9099,4.9141,4.9223,4.9311,4.9322,4.9381,4.9475,4.9489,4.94,4.9572,4.9605,4.9781,4.9872,4.9719,4.9732,5.0251,5.026,5.0269,5.0341,0,0,0,0,0,0,4.8865,4.8913,4.8986,4.9101,4.9149,4.9397,4.9316,4.933,4.9405,4.9399,4.9521,4.9537,4.9571,4.976,4.9796,4.9889,4.9743,5.0243,5.0255,5.0266,5.0331,5.0351,5.0368,0,0,0,0,0,4.8849,4.8997,4.8989,4.9029,4.9241,4.9402,4.943,4.9464,4.9412,4.9487,4.9549,4.9533,4.9856,4.9778,4.9818,4.9917,5.0238,5.0252,5.0265,5.0322,5.0347,5.0368,0,0,0,0,0,0,4.889,4.9012,4.9005,4.9194,4.9288,4.9398,4.9494,4.9489,4.9601,4.9591,4.9631,4.9659,4.9837,4.9895,4.9806,5.0114,5.004,5.0063,5.007,5.0095,5.0113,5.0097,4.9755,0,0,0,0,0,4.8921,4.904,4.914,4.9297,4.9345,4.9411,4.9483,4.9502,4.9601,4.9641,4.9715,4.9814,4.9938,5.0019,5.0138,5.0338,5.0367,5.0427,5.0445,5.0461,5.048,5.0595,5.0624,5.0317,5.0316,5.0316,0,0,4.8986,4.9068,4.914,4.9308,4.9383,4.9508,4.9445,4.9579,4.9673,4.9662,4.9834,4.9892,5.0005,5.0196,5.0283,5.0249,5.0572,5.0478,5.0489,5.0501,5.0612,5.0641,5.0667,5.0326,5.0324,5.0323,0,0,4.917,4.9241,4.9382,4.9459,4.9573,4.9617,4.9651,4.9764,4.9802,4.9974,4.997,5.0084,5.0295,5.0378,5.0447,5.0666,5.0658,5.0704,5.0804,5.0916,5.094,5.0962,5.1044,5.1073,5.0723,5.0723,5.0723,0,4.9237,4.9423,4.9455,4.9592,4.9668,4.9662,4.9808,4.9881,5.0029,5.0083,5.0042,5.0311,5.0386,5.0598,5.0652,5.0707,5.075,5.0691,5.0934,5.0956,5.0977,5.1056,5.1086,5.0728,5.0727,5.0727,5.0726,0,4.9502,4.9632,4.9732,4.9875,4.9962,5.0102,5.0158,5.0243,5.0255,5.0304,5.0483,5.0574,5.0714,5.0765,5.0778,5.0981,5.0957,5.0924,5.0851,5.1011,5.1086,5.1116,5.0735,5.0734,5.0732,5.0731,0,0,4.9717,4.9878,4.9915,4.9981,5.0109,5.0211,5.0352,5.0488,5.0562,5.0665,5.0788,5.0969,5.0941,5.102,5.1042,5.114,5.1313,5.1097,5.11,5.1137,5.1548,5.1574,5.1608,5.1308,5.1314,5.1318,5.154,0,4.9916,5.0165,5.02,5.0422,5.0545,5.0543,5.0667,5.0761,5.0811,5.0925,5.0981,5.1111,5.1062,5.1111,5.1207,5.1272,5.1397,5.1256,5.1426,5.1432,5.14,5.1646,5.1673,5.1878,5.1569,5.1574,5.1577,0,5.0181,5.0292,5.0526,5.064,5.0693,5.0803,5.0933,5.104,5.1148,5.1178,5.1268,5.128,5.1431,5.135,5.1561,5.1464,5.1536,5.1579,5.1588,5.1607,5.1516,5.1676,5.1943,5.1976,5.1623,5.162,5.1616,0,5.032,5.0527,5.0695,5.0751,5.0888,5.0966,5.1027,5.1129,5.121,5.1324,5.1378,5.1508,5.158,5.1682,5.1731,5.1666,5.194,5.1862,5.1973,5.1972,5.2032,5.2029,5.2319,5.2073,5.2073,5.2072,5.2072,0,5.054,5.0684,5.0759,5.0863,5.1026,5.1066,5.1227,5.1285,5.1377,5.1495,5.1501,5.1612,5.1667,5.1787,5.1826,5.1997,5.2029,5.206,5.207,5.2062,5.2059,5.2112,5.21,5.2081,5.2079,5.2077,5.2076,0,5.0723,5.0778,5.0962,5.1076,5.1109,5.1224,5.1324,5.1427,5.1477,5.1626,5.1663,5.1743,5.1886,5.1943,5.2117,5.2143,5.2342,5.2338,5.2306,5.2309,5.2418,5.2409,5.2755,5.2805,5.2523,5.2526,5.2528,0,5.0861,5.0972,5.1099,5.1178,5.1241,5.1368,5.1451,5.1495,5.1582,5.1715,5.1803,5.1944,5.206,5.2289,5.2364,5.2499,5.2501,5.2613,5.2521,5.2512,5.2508,5.2502,5.2515,5.2631,5.2634,5.2636,5.2638,0,5.1103,5.1125,5.1243,5.1373,5.1472,5.1576,5.1678,5.1742,5.1803,5.1901,5.2046,5.2136,5.2315,5.2458,5.2597,5.2663,5.2663,5.2666,5.27,5.2694,5.2672,5.269,5.2356,5.2658,5.2656,5.2655,5.2654,5.2653,5.127,5.1371,5.1477,5.161,5.1691,5.1787,5.189,5.1953,5.2075,5.2223,5.2242,5.2399,5.2509,5.2696,5.2768,5.2894,5.2865,5.2912,5.2925,5.2937,5.2947,5.265,5.2919,5.2918,5.2918,5.2917,5.2917,0,5.1516,5.1584,5.1706,5.1848,5.1954,5.1942,5.2055,5.2146,5.2283,5.2384,5.2498,5.2668,5.2807,5.2894,5.3035,5.312,5.3124,5.3156,5.3152,5.3168,5.2962,5.2921,5.315,5.315,5.315,5.315,5.315,5.315,5.1656,5.1826,5.1862,5.2075,5.2143,5.2296,5.2362,5.2452,5.2533,5.2722,5.2837,5.2892,5.299,5.3139,5.3267,5.329,5.3343,5.3378,5.3399,5.3206,5.3182,5.3159,5.312,5.3388,5.3389,5.3596,5.3597,5.3599]},{"header":{"parameterUnit":"m.s-1","parameterCategory":1,"la1":30.2991,"la2":30.254,"lo1":-89.0895,"lo2":-89.0444,"dy":0.0017,"dx":0.0017,"nx":28,"ny":28,"refTime":"2024-04-03T09:00:00:Z","depth":0,"parameterNumber":3,"parameterNumberName":"V-component_of_WINDS"},"data":[0,0,0,0,0,0,0,0,0,0,0,0,0,0,0,0,0,0,0,0,0,0,0,0,0,0,0,0,0,0,0,0,0,0,0,0,0,0,0,0,0,0,0,0,0,0,0,0,0,0,0,0,0,0,0,0,0,0,-5.36,-5.3601,0,-5.3699,-5.37,-5.3701,-5.3678,-5.3676,-5.3674,-5.3672,-5.3771,-5.3775,-5.3779,0,0,0,0,0,0,0,0,0,0,0,0,0,-5.3387,-5.3391,-5.36,-5.3601,-5.3602,-5.3699,-5.37,-5.3702,-5.3678,-5.3676,-5.3674,-5.3672,-5.3769,-5.3774,-5.378,0,0,0,0,0,0,0,0,0,0,0,0,0,-5.3482,-5.3392,-5.36,-5.3602,-5.3604,-5.3699,-5.37,-5.3702,-5.3679,-5.3676,-5.3673,-5.367,-5.3768,-5.3774,-5.378,-5.3878,0,0,-5.38,-5.3803,0,0,0,0,0,0,0,0,-5.3477,-5.349,-5.3601,-5.3602,-5.3604,-5.3673,-5.3661,-5.3761,-5.368,-5.365,-5.3672,-5.3669,-5.374,-5.3749,-5.3774,-5.3882,-5.3886,-5.3801,-5.3805,-5.3808,-5.381,0,0,0,0,0,0,0,-5.347,-5.3485,-5.3639,-5.3602,-5.3604,-5.3598,-5.3608,-5.368,-5.371,-5.3653,-5.3651,-5.3663,-5.3741,-5.3767,-5.3776,-5.3888,-5.3801,-5.3807,-5.3811,-5.3813,-5.4079,-5.4082,0,0,0,0,0,0,-5.3463,-5.348,-5.3636,-5.3642,-5.3532,-5.3604,-5.3615,-5.3654,-5.3709,-5.3715,-5.3666,-5.3662,-5.3758,-5.3768,-5.3779,-5.3895,-5.3808,-5.3814,-5.3818,-5.4076,-5.408,-5.4083,0,0,0,0,0,0,-5.3458,-5.3477,-5.3632,-5.3561,-5.358,-5.361,-5.3654,-5.3657,-5.3684,-5.3719,-5.3724,-5.3688,-5.3756,-5.377,-5.3853,-5.3898,-5.3817,-5.3823,-5.4072,-5.4077,-5.4082,-5.4129,0,0,0,0,0,0,-5.3452,-5.3475,-5.3513,-5.3562,-5.3584,-5.3705,-5.3657,-5.3661,-5.3696,-5.3692,-5.3741,-5.3746,-5.3755,-5.3843,-5.386,-5.3906,-5.3828,-5.4068,-5.4075,-5.408,-5.4124,-5.4135,-5.4145,0,0,0,0,0,-5.3445,-5.3523,-5.3516,-5.3534,-5.3632,-5.3708,-5.3721,-5.373,-5.37,-5.3738,-5.376,-5.3745,-5.3891,-5.3852,-5.387,-5.3919,-5.4066,-5.4073,-5.408,-5.4119,-5.4133,-5.4145,0,0,0,0,0,0,-5.3478,-5.3529,-5.3522,-5.3618,-5.3659,-5.3704,-5.3752,-5.3744,-5.3794,-5.3788,-5.3796,-5.3807,-5.3891,-5.3914,-5.3869,-5.4015,-5.3974,-5.3985,-5.3998,-5.4011,-5.4021,-5.4014,-5.3833,0,0,0,0,0,-5.3497,-5.3555,-5.3596,-5.3677,-5.3698,-5.3722,-5.3755,-5.3758,-5.3801,-5.3818,-5.3846,-5.3887,-5.3942,-5.3978,-5.403,-5.4127,-5.4137,-5.417,-5.418,-5.4189,-5.4198,-5.4249,-5.4263,-5.4106,-5.4106,-5.4106,0,0,-5.3536,-5.3571,-5.3607,-5.3684,-5.3717,-5.3776,-5.3736,-5.3801,-5.3844,-5.3827,-5.3907,-5.393,-5.3975,-5.4065,-5.4107,-5.4087,-5.4243,-5.4198,-5.4204,-5.4208,-5.4257,-5.4272,-5.4285,-5.4111,-5.411,-5.411,0,0,-5.3636,-5.367,-5.374,-5.3773,-5.3823,-5.3838,-5.3855,-5.3901,-5.3915,-5.3996,-5.3985,-5.4036,-5.4131,-5.4163,-5.4192,-5.4305,-5.4292,-5.4322,-5.4376,-5.4426,-5.4438,-5.4449,-5.4488,-5.4502,-5.4331,-5.4331,-5.4331,0,-5.3678,-5.3768,-5.3777,-5.3842,-5.3876,-5.3864,-5.3935,-5.3966,-5.403,-5.4053,-5.403,-5.4148,-5.4178,-5.4275,-5.4303,-5.4327,-5.4345,-5.4316,-5.4436,-5.4447,-5.4457,-5.4494,-5.4509,-5.4334,-5.4334,-5.4334,-5.4333,0,-5.3816,-5.3878,-5.3929,-5.3991,-5.4031,-5.4099,-5.4117,-5.4155,-5.4155,-5.4172,-5.4254,-5.429,-5.4349,-5.4372,-5.4372,-5.4469,-5.4455,-5.4434,-5.4392,-5.4475,-5.451,-5.4524,-5.4339,-5.4338,-5.4337,-5.4336,0,0,-5.394,-5.4007,-5.4025,-5.4053,-5.4107,-5.4154,-5.422,-5.4279,-5.4311,-5.4356,-5.441,-5.4491,-5.4472,-5.4505,-5.4508,-5.4552,-5.4637,-5.4526,-5.4527,-5.4544,-5.4744,-5.4758,-5.4774,-5.463,-5.4633,-5.4635,-5.4739,0,-5.4045,-5.4163,-5.4173,-5.4279,-5.4335,-5.4324,-5.4382,-5.442,-5.4438,-5.4487,-5.4506,-5.4563,-5.4534,-5.4554,-5.4597,-5.4618,-5.4677,-5.4611,-5.4679,-5.4681,-5.4667,-5.4793,-5.4809,-5.4906,-5.4753,-5.4755,-5.4757,0,-5.4183,-5.4232,-5.4343,-5.4388,-5.4412,-5.4464,-5.4517,-5.4566,-5.4608,-5.4617,-5.4654,-5.4652,-5.4718,-5.4675,-5.4766,-5.472,-5.4749,-5.4763,-5.4767,-5.4773,-5.4723,-5.48,-5.4937,-5.4951,-5.4779,-5.4777,-5.4776,0,-5.4261,-5.4355,-5.4433,-5.4457,-5.4512,-5.4548,-5.4572,-5.4612,-5.4646,-5.4693,-5.4714,-5.4768,-5.4797,-5.4838,-5.4849,-5.4817,-5.4939,-5.4897,-5.4947,-5.4947,-5.4973,-5.4971,-5.5114,-5.4994,-5.4993,-5.4993,-5.4993,0,-5.4376,-5.4444,-5.4469,-5.4517,-5.4592,-5.4602,-5.4676,-5.4698,-5.4734,-5.4785,-5.4779,-5.4826,-5.4839,-5.4889,-5.4898,-5.4971,-5.4984,-5.4992,-5.4994,-5.4992,-5.4991,-5.501,-5.5003,-5.4997,-5.4996,-5.4995,-5.4995,0,-5.4476,-5.4495,-5.458,-5.4624,-5.4637,-5.469,-5.4727,-5.4773,-5.4789,-5.4854,-5.487,-5.4895,-5.4953,-5.4969,-5.5038,-5.5044,-5.513,-5.5125,-5.5115,-5.5115,-5.5164,-5.5158,-5.5324,-5.5345,-5.5212,-5.5213,-5.5214,0,-5.4548,-5.46,-5.465,-5.4684,-5.471,-5.4765,-5.48,-5.4811,-5.4848,-5.4899,-5.4938,-5.4996,-5.5042,-5.5135,-5.5159,-5.5211,-5.5207,-5.5262,-5.5215,-5.5211,-5.5206,-5.5202,-5.5207,-5.527,-5.5271,-5.5273,-5.5273,0,-5.4672,-5.4679,-5.473,-5.4785,-5.4827,-5.487,-5.4911,-5.4939,-5.4956,-5.4997,-5.5057,-5.5093,-5.5163,-5.522,-5.5273,-5.5296,-5.5287,-5.5288,-5.5302,-5.5301,-5.5292,-5.5296,-5.5138,-5.5284,-5.5283,-5.5282,-5.5282,-5.5281,-5.4759,-5.4805,-5.4847,-5.4903,-5.4936,-5.4974,-5.5019,-5.5041,-5.5091,-5.515,-5.5154,-5.5218,-5.5258,-5.5328,-5.5354,-5.5403,-5.5387,-5.5408,-5.5413,-5.5418,-5.5421,-5.5285,-5.5413,-5.5413,-5.5413,-5.5412,-5.5412,0,-5.4882,-5.4909,-5.4961,-5.5019,-5.5063,-5.5053,-5.5097,-5.5135,-5.5192,-5.523,-5.5276,-5.5343,-5.5398,-5.5426,-5.5479,-5.5513,-5.5511,-5.5527,-5.5524,-5.5529,-5.5433,-5.5415,-5.5528,-5.5528,-5.5528,-5.5528,-5.5528,-5.5528,-5.4952,-5.5027,-5.5039,-5.513,-5.5156,-5.5219,-5.5246,-5.528,-5.5311,-5.5387,-5.5432,-5.5451,-5.5484,-5.554,-5.5589,-5.5596,-5.5615,-5.5633,-5.5638,-5.5548,-5.5536,-5.5524,-5.5507,-5.5638,-5.5638,-5.5729,-5.573,-5.573]}]]